User: anonymous   Login
Location: Unspecified
(0.0000°N, 0.0000°E)
Time: 03:56:15
(UTC+02:00)
Language:

SJ-6B - Orbit

View from above orbital plane
View from above orbital plane
View from above satellite
View from above satellite

Ground track
Ground track

The orbit data is extracted from the following two-line orbital elements,

1 28415U 04035C   16118.93907972 +.00001346 +00000-0 +94798-4 0  9990
2 28415 097.7802 139.1336 0054540 089.6451 271.1025 15.05631188636081
Epoch (UTC): 27 April 2016 22:32:16
Eccentricity: 0.0054540
inclination: 97.7802°
perigee height: 512 km
apogee height: 587 km
right ascension of ascending node: 139.1336°
argument of perigee: 89.6451°
revolutions per day: 15.05631188
mean anomaly at epoch: 271.1025°
orbit number at epoch: 63608

The dashed part of the orbit path shows where the satellite is in the earth's shadow,  

DLR